ITAMSAT (IO-26) (22826 NORAD) Tracking and Keplerian Element Data

This shows tracking and keplerian element data for the satellite.

Feedback or suggestion? Click here.




ElementValue
Catalog22826
NameITAMSAT (IO-26)
Epoch Orbit35037
Epoch Day228.95937704
Epoch Year2019
RAAN218.9429
Inclination98.9007
Eccentricity0.0009039
Argument of Perigee168.1563
Mean Anonmoly191.9833
Mean Motion14.3039809
Decay Rate-2.5E-07
L11 22826U 93061D 19228.95937704 -.00000025 00000-0 83243-5 0 9998
L22 22826 98.9007 218.9429 0009039 168.1563 191.9833 14.30398090350370

Live tracking and technical data element details for ITAMSAT (IO-26) (NORAD 22826). ITAMSAT (IO-26) can be tracked NOW for your location showing map with azimuth and elevation plus other details from your city location.

Track the satellite on the map from your city or location and see movement details for azimuth, elevation, latitude, longitude, range, height, and movement on the map or in text.







IsCatalogInMostPopularTable: catalog: 22826, numindb: 161
Update: records affected: 1



GetName: 22826 ITAMSAT (IO-26)

Hit Count: updated at: Mon, 19 Aug 2019 01:12:14 GMT